User: anonymous   Login
Location: Unspecified
(0.0000°N, 0.0000°E)
Time: 00:56:27
(UTC+00:00)
Language:

STARLINK-34819 - Orbit

View from above orbital plane
View from above orbital plane
View from above satellite
View from above satellite

Ground track
Ground track

The orbit is defined by the following mean orbital elements,

1 65040U          26145.42731703 +.00000000 +00000-0 +98183-3 0 00005
2 65040  53.1594 298.1148 0001860 112.6923 247.4275 15.30215849    05
Epoch (UTC): 25 May 2026 10:15:20
Eccentricity: 0.0001860
inclination: 53.1594°
perigee height: 474 km
apogee height: 476 km
right ascension of ascending node: 298.1148°
argument of perigee: 112.6923°
revolutions per day: 15.30215849
mean anomaly at epoch: 247.4275°

The dashed part of the orbit path shows where the satellite is in the earth's shadow,  

DLR